When you browse on this site, cookies collect data to enhance your experience and personalize the content and advertising you see.
Visit our Privacy Policy to learn more. By continuing to use the site, you agree to this use of cookies and data.
  • en Suisse
  • Liste des pays
  • À 7 jours
  • Température de l'eau
  • Carte satellitaire
  • Carte météo
  • Widgets météo
  • user-avatar
    Se connecter

    Météo par heure à Rangpur

    Ce jour, 17 Juin, Lundi

    Heure Température Précipitation Vent Pression Humidité
    00:00 +30°C° 0 mm 3 m/s 746 mmHg 94%
    01:00 +30°C° 0.5 mm 3 m/s 746 mmHg 93%
    02:00 +30°C° 0.5 mm 3 m/s 745 mmHg 92%
    03:00 +30°C° 0.5 mm 4 m/s 745 mmHg 92%
    04:00 +30°C° 0.6 mm 3 m/s 745 mmHg 92%
    05:00 +29°C° 0.6 mm 3 m/s 746 mmHg 92%
    06:00 +29°C° 0 mm 3 m/s 746 mmHg 93%
    07:00 +31°C° 0.3 mm 3 m/s 746 mmHg 88%
    08:00 +33°C° 0.3 mm 3 m/s 746 mmHg 83%
    09:00 +34°C° 0.3 mm 4 m/s 747 mmHg 78%
    10:00 +35°C° 0 mm 3 m/s 747 mmHg 73%
    11:00 +36°C° 0 mm 3 m/s 746 mmHg 67%
    12:00 +37°C° 0 mm 3 m/s 746 mmHg 62%
    13:00 +38°C° 0.2 mm 2 m/s 746 mmHg 58%
    14:00 +39°C° 0.2 mm 2 m/s 745 mmHg 55%
    15:00 +39°C° 0.2 mm 1 m/s 744 mmHg 51%
    16:00 +38°C° 0.4 mm 2 m/s 744 mmHg 57%
    17:00 +37°C° 0.4 mm 2 m/s 744 mmHg 64%
    18:00 +36°C° 0.4 mm 3 m/s 744 mmHg 70%
    19:00 +35°C° 0.1 mm 3 m/s 744 mmHg 74%
    20:00 +34°C° 0.1 mm 3 m/s 745 mmHg 78%
    21:00 +33°C° 0.1 mm 4 m/s 745 mmHg 82%
    22:00 +32°C° 0.5 mm 4 m/s 745 mmHg 83%
    23:00 +31°C° 0.5 mm 3 m/s 746 mmHg 84%

    Demain, 18 Juin, Mardi

    Heure Température Précipitation Vent Pression Humidité
    00:00 +30°C° 0.5 mm 3 m/s 746 mmHg 85%
    01:00 +30°C° 0.3 mm 3 m/s 746 mmHg 87%
    02:00 +30°C° 0.3 mm 4 m/s 745 mmHg 89%
    03:00 +29°C° 0.3 mm 4 m/s 745 mmHg 90%
    04:00 +29°C° 0.5 mm 4 m/s 745 mmHg 91%
    05:00 +29°C° 0.5 mm 4 m/s 745 mmHg 91%
    06:00 +29°C° 0.5 mm 4 m/s 745 mmHg 92%
    07:00 +30°C° 0.1 mm 4 m/s 746 mmHg 87%
    08:00 +33°C° 0.1 mm 4 m/s 746 mmHg 82%
    09:00 +34°C° 0.1 mm 4 m/s 747 mmHg 77%
    10:00 +35°C° 0 mm 4 m/s 746 mmHg 70%
    11:00 +37°C° 0 mm 4 m/s 746 mmHg 63%
    12:00 +39°C° 0 mm 3 m/s 746 mmHg 55%
    13:00 +39°C° 0 mm 3 m/s 745 mmHg 53%
    14:00 +40°C° 0 mm 3 m/s 745 mmHg 51%
    15:00 +40°C° 0 mm 3 m/s 744 mmHg 49%
    16:00 +39°C° 0.2 mm 3 m/s 744 mmHg 54%
    17:00 +38°C° 0.2 mm 3 m/s 744 mmHg 59%
    18:00 +37°C° 0.2 mm 4 m/s 744 mmHg 64%
    19:00 +36°C° 0.4 mm 4 m/s 744 mmHg 69%
    20:00 +35°C° 0.4 mm 4 m/s 745 mmHg 74%
    21:00 +34°C° 0.4 mm 4 m/s 746 mmHg 79%
    22:00 +33°C° 1.5 mm 4 m/s 746 mmHg 81%
    23:00 +32°C° 1.5 mm 4 m/s 746 mmHg 83%

    Après-demain, 19 Juin, Mercredi

    Heure Température Précipitation Vent Pression Humidité
    00:00 +30°C° 1.5 mm 5 m/s 746 mmHg 85%
    01:00 +30°C° 1.5 mm 4 m/s 746 mmHg 87%
    02:00 +30°C° 1.5 mm 3 m/s 746 mmHg 89%
    03:00 +29°C° 1.5 mm 3 m/s 745 mmHg 91%
    04:00 +29°C° 0.6 mm 3 m/s 745 mmHg 91%
    05:00 +29°C° 0.6 mm 3 m/s 745 mmHg 90%
    06:00 +29°C° 0.6 mm 4 m/s 746 mmHg 90%
    07:00 +32°C° 0.1 mm 4 m/s 746 mmHg 86%
    08:00 +33°C° 0.1 mm 5 m/s 746 mmHg 81%
    09:00 +34°C° 0.1 mm 5 m/s 746 mmHg 77%
    10:00 +35°C° 0 mm 5 m/s 746 mmHg 73%
    11:00 +36°C° 0 mm 5 m/s 746 mmHg 68%
    12:00 +39°C° 0 mm 5 m/s 746 mmHg 64%
    13:00 +38°C° 0 mm 4 m/s 745 mmHg 62%
    14:00 +38°C° 0 mm 4 m/s 745 mmHg 60%
    15:00 +39°C° 0 mm 3 m/s 744 mmHg 58%
    16:00 +38°C° 0.5 mm 3 m/s 744 mmHg 62%
    17:00 +37°C° 0.5 mm 4 m/s 744 mmHg 65%
    18:00 +37°C° 0.5 mm 4 m/s 744 mmHg 69%
    19:00 +36°C° 0.2 mm 4 m/s 744 mmHg 72%
    20:00 +35°C° 0.2 mm 3 m/s 745 mmHg 76%
    21:00 +33°C° 0.2 mm 3 m/s 746 mmHg 79%
    22:00 +33°C° 0.8 mm 4 m/s 746 mmHg 81%
    23:00 +32°C° 0.8 mm 4 m/s 746 mmHg 82%

    20 Juin, Jeudi

    Heure Température Précipitation Vent Pression Humidité
    00:00 +32°C° 0.8 mm 4 m/s 746 mmHg 84%
    01:00 +30°C° 2.3 mm 4 m/s 746 mmHg 87%
    02:00 +30°C° 2.3 mm 3 m/s 745 mmHg 89%
    03:00 +29°C° 2.3 mm 3 m/s 745 mmHg 92%
    04:00 +29°C° 0.4 mm 3 m/s 746 mmHg 91%
    05:00 +29°C° 0.4 mm 3 m/s 746 mmHg 91%
    06:00 +29°C° 0.4 mm 4 m/s 746 mmHg 90%
    07:00 +32°C° 0 mm 4 m/s 747 mmHg 86%
    08:00 +33°C° 0 mm 4 m/s 747 mmHg 82%
    09:00 +34°C° 0 mm 4 m/s 747 mmHg 77%
    10:00 +35°C° 0 mm 4 m/s 747 mmHg 72%
    11:00 +37°C° 0 mm 4 m/s 747 mmHg 67%
    12:00 +38°C° 0 mm 4 m/s 746 mmHg 62%
    13:00 +38°C° 0.6 mm 4 m/s 746 mmHg 60%
    14:00 +39°C° 0.6 mm 3 m/s 745 mmHg 58%
    15:00 +39°C° 0.6 mm 3 m/s 745 mmHg 57%
    16:00 +38°C° 0.6 mm 3 m/s 745 mmHg 61%
    17:00 +37°C° 0.6 mm 3 m/s 744 mmHg 66%
    18:00 +36°C° 0.6 mm 4 m/s 744 mmHg 71%
    19:00 +35°C° 0.1 mm 4 m/s 745 mmHg 74%
    20:00 +34°C° 0.1 mm 3 m/s 745 mmHg 77%
    21:00 +33°C° 0.1 mm 3 m/s 746 mmHg 80%
    22:00 +33°C° 1.7 mm 3 m/s 746 mmHg 82%
    23:00 +32°C° 1.7 mm 4 m/s 746 mmHg 85%

    21 Juin, Vendredi

    Heure Température Précipitation Vent Pression Humidité
    00:00 +30°C° 1.7 mm 4 m/s 746 mmHg 88%
    01:00 +30°C° 1.6 mm 4 m/s 746 mmHg 88%
    02:00 +30°C° 1.6 mm 3 m/s 746 mmHg 88%
    03:00 +30°C° 1.6 mm 3 m/s 746 mmHg 88%
    04:00 +30°C° 1.9 mm 3 m/s 746 mmHg 89%
    05:00 +30°C° 1.9 mm 3 m/s 746 mmHg 90%
    06:00 +30°C° 1.9 mm 3 m/s 747 mmHg 90%
    07:00 +32°C° 0.6 mm 4 m/s 747 mmHg 86%
    08:00 +33°C° 0.6 mm 4 m/s 748 mmHg 82%
    09:00 +34°C° 0.6 mm 5 m/s 748 mmHg 78%
    10:00 +35°C° 0.3 mm 4 m/s 748 mmHg 73%
    11:00 +37°C° 0.3 mm 4 m/s 747 mmHg 67%
    12:00 +38°C° 0.3 mm 4 m/s 747 mmHg 61%
    13:00 +38°C° 0.6 mm 4 m/s 746 mmHg 59%
    14:00 +38°C° 0.6 mm 4 m/s 745 mmHg 58%
    15:00 +39°C° 0.6 mm 3 m/s 745 mmHg 57%
    16:00 +38°C° 0.3 mm 4 m/s 745 mmHg 62%
    17:00 +37°C° 0.3 mm 4 m/s 745 mmHg 67%
    18:00 +36°C° 0.3 mm 4 m/s 744 mmHg 72%
    19:00 +35°C° 0.1 mm 4 m/s 745 mmHg 75%
    20:00 +34°C° 0.1 mm 3 m/s 746 mmHg 78%
    21:00 +33°C° 0.1 mm 3 m/s 746 mmHg 81%
    22:00 +33°C° 0.7 mm 3 m/s 746 mmHg 83%
    23:00 +31°C° 0.7 mm 3 m/s 747 mmHg 84%

    22 Juin, Samedi

    Heure Température Précipitation Vent Pression Humidité
    00:00 +31°C° 0.7 mm 3 m/s 747 mmHg 85%
    01:00 +30°C° 0.9 mm 3 m/s 746 mmHg 86%
    02:00 +30°C° 0.9 mm 3 m/s 746 mmHg 88%
    03:00 +30°C° 0.9 mm 3 m/s 746 mmHg 89%
    04:00 +30°C° 2.4 mm 3 m/s 746 mmHg 90%
    05:00 +30°C° 2.4 mm 3 m/s 746 mmHg 90%
    06:00 +29°C° 2.4 mm 3 m/s 746 mmHg 91%
    07:00 +30°C° 0.8 mm 4 m/s 747 mmHg 88%
    08:00 +32°C° 0.8 mm 5 m/s 747 mmHg 84%
    09:00 +33°C° 0.8 mm 5 m/s 747 mmHg 81%
    10:00 +34°C° 0.8 mm 5 m/s 747 mmHg 77%
    11:00 +35°C° 0.8 mm 5 m/s 747 mmHg 73%
    12:00 +36°C° 0.8 mm 4 m/s 747 mmHg 70%
    13:00 +37°C° 1.5 mm 4 m/s 746 mmHg 67%
    14:00 +37°C° 1.5 mm 4 m/s 745 mmHg 65%
    15:00 +38°C° 1.5 mm 4 m/s 745 mmHg 63%
    16:00 +37°C° 1.1 mm 4 m/s 745 mmHg 65%
    17:00 +36°C° 1.1 mm 4 m/s 744 mmHg 68%
    18:00 +35°C° 1.1 mm 4 m/s 744 mmHg 71%
    19:00 +35°C° 0.1 mm 3 m/s 745 mmHg 73%
    20:00 +34°C° 0.1 mm 3 m/s 745 mmHg 76%
    21:00 +33°C° 0.1 mm 3 m/s 746 mmHg 79%
    22:00 +33°C° 1.4 mm 3 m/s 746 mmHg 80%
    23:00 +31°C° 1.4 mm 3 m/s 746 mmHg 81%
    Voir plus